SR6NWB-11 Weather Reports


time (UTC)temp
C
wind
direction
speed
KPH
gust
KPH
rain 1hr
cm
rain 24hr
cm
rain mn
cm
humidity
%
barometer
mb
20260504150452 22 0 0.0 0.0 0.00 0.00 0.00 29 1017.8
20260504140942 22 0 0.0 0.0 0.00 0.00 0.00 29 1017.9
20260504140144 22 0 0.0 0.0 0.00 0.00 0.00 29 1018.1
20260504110412 20 0 0.0 0.0 0.00 0.00 0.00 33 1018.6
20260504100112 18 0 0.0 0.0 0.00 0.00 0.00 35 1019.0
20260504081737 17 0 0.0 0.0 0.00 0.00 0.00 37 1018.8
20260504080747 17 0 0.0 0.0 0.00 0.00 0.00 37 1018.8
20260504060107 13 0 0.0 0.0 0.00 0.00 0.00 43 1018.7
20260504045907 11 0 0.0 0.0 0.00 0.00 0.00 44 1018.7
20260504044942 11 0 0.0 0.0 0.00 0.00 0.00 44 1018.7
20260504044042 11 0 0.0 0.0 0.00 0.00 0.00 44 1018.4
20260504043147 11 0 0.0 0.0 0.00 0.00 0.00 44 1018.1
20260504042317 11 0 0.0 0.0 0.00 0.00 0.00 43 1018.1
20260504041412 12 0 0.0 0.0 0.00 0.00 0.00 43 1018.1
20260504040552 12 0 0.0 0.0 0.00 0.00 0.00 43 1018.0
20260504035727 12 0 0.0 0.0 0.00 0.00 0.00 43 1017.9
20260504034742 12 0 0.0 0.0 0.00 0.00 0.00 42 1017.9
20260504033857 12 0 0.0 0.0 0.00 0.00 0.00 42 1017.9
20260504033007 12 0 0.0 0.0 0.00 0.00 0.00 42 1017.8
20260504032102 12 0 0.0 0.0 0.00 0.00 0.00 41 1017.8
20260504031122 12 0 0.0 0.0 0.00 0.00 0.00 41 1017.8
20260504030322 12 0 0.0 0.0 0.00 0.00 0.00 40 1017.8
20260504025507 12 0 0.0 0.0 0.00 0.00 0.00 40 1017.9
20260504024557 12 0 0.0 0.0 0.00 0.00 0.00 40 1017.9
20260504023620 12 0 0.0 0.0 0.00 0.00 0.00 39 1017.7
20260504022817 12 0 0.0 0.0 0.00 0.00 0.00 39 1017.8
20260504022012 12 0 0.0 0.0 0.00 0.00 0.00 39 1017.7
20260504021202 12 0 0.0 0.0 0.00 0.00 0.00 39 1017.8
20260504020322 12 0 0.0 0.0 0.00 0.00 0.00 39 1017.9
20260504015427 12 0 0.0 0.0 0.00 0.00 0.00 38 1017.7
20260504014512 12 0 0.0 0.0 0.00 0.00 0.00 38 1017.9
20260504013602 12 0 0.0 0.0 0.00 0.00 0.00 38 1017.8
20260504012752 12 0 0.0 0.0 0.00 0.00 0.00 38 1017.9
20260504011922 12 0 0.0 0.0 0.00 0.00 0.00 37 1017.9
20260504011117 12 0 0.0 0.0 0.00 0.00 0.00 37 1018.0
20260504010212 12 0 0.0 0.0 0.00 0.00 0.00 37 1017.9
20260504005333 12 0 0.0 0.0 0.00 0.00 0.00 37 1017.9
20260504004507 12 0 0.0 0.0 0.00 0.00 0.00 37 1018.0
20260504003532 12 0 0.0 0.0 0.00 0.00 0.00 37 1018.0
20260504002732 12 0 0.0 0.0 0.00 0.00 0.00 37 1017.9
20260504001852 12 0 0.0 0.0 0.00 0.00 0.00 36 1017.9
20260504001037 12 0 0.0 0.0 0.00 0.00 0.00 37 1018.1
20260504000057 12 0 0.0 0.0 0.00 0.00 0.00 36 1018.1
20260503235152 12 0 0.0 0.0 0.00 0.00 0.00 36 1018.1
20260503234157 13 0 0.0 0.0 0.00 0.00 0.00 36 1018.3
20260503233202 13 0 0.0 0.0 0.00 0.00 0.00 36 1018.4
20260503232227 13 0 0.0 0.0 0.00 0.00 0.00 36 1018.4
20260503231332 13 0 0.0 0.0 0.00 0.00 0.00 36 1018.5
20260503230502 13 0 0.0 0.0 0.00 0.00 0.00 36 1018.4
20260503225637 13 0 0.0 0.0 0.00 0.00 0.00 36 1018.2
20260503224757 13 0 0.0 0.0 0.00 0.00 0.00 36 1018.6
20260503223902 13 0 0.0 0.0 0.00 0.00 0.00 36 1018.6
20260503222932 13 0 0.0 0.0 0.00 0.00 0.00 36 1018.5
20260503221947 13 0 0.0 0.0 0.00 0.00 0.00 36 1018.4
20260503221117 13 0 0.0 0.0 0.00 0.00 0.00 36 1018.6
20260503220252 13 0 0.0 0.0 0.00 0.00 0.00 36 1018.7
20260503215402 14 0 0.0 0.0 0.00 0.00 0.00 35 1018.8
20260503214552 14 0 0.0 0.0 0.00 0.00 0.00 35 1018.8
20260503213652 14 0 0.0 0.0 0.00 0.00 0.00 35 1018.8
20260503212800 14 0 0.0 0.0 0.00 0.00 0.00 34 1018.8
20260503211927 14 0 0.0 0.0 0.00 0.00 0.00 34 1018.7
20260503211102 15 0 0.0 0.0 0.00 0.00 0.00 33 1018.6
20260503210222 15 0 0.0 0.0 0.00 0.00 0.00 33 1018.7
20260503205322 15 0 0.0 0.0 0.00 0.00 0.00 32 1018.8
20260503204412 15 0 0.0 0.0 0.00 0.00 0.00 32 1018.9
20260503203457 15 0 0.0 0.0 0.00 0.00 0.00 31 1019.0
20260503202457 15 0 0.0 0.0 0.00 0.00 0.00 31 1018.9
20260503201542 15 0 0.0 0.0 0.00 0.00 0.00 30 1018.9
20260503200612 15 0 0.0 0.0 0.00 0.00 0.00 29 1019.0
20260503195612 15 0 0.0 0.0 0.00 0.00 0.00 29 1019.2
20260503194802 15 0 0.0 0.0 0.00 0.00 0.00 29 1019.2
20260503193947 15 0 0.0 0.0 0.00 0.00 0.00 28 1019.1
20260503192952 15 0 0.0 0.0 0.00 0.00 0.00 28 1019.3
20260503192107 15 0 0.0 0.0 0.00 0.00 0.00 28 1019.2
20260503191112 15 0 0.0 0.0 0.00 0.00 0.00 27 1019.3
20260503190122 16 0 0.0 0.0 0.00 0.00 0.00 27 1019.2
20260503185227 16 0 0.0 0.0 0.00 0.00 0.00 27 1019.2
20260503184227 16 0 0.0 0.0 0.00 0.00 0.00 26 1019.3
20260503183327 16 0 0.0 0.0 0.00 0.00 0.00 26 1019.1
20260503182407 16 0 0.0 0.0 0.00 0.00 0.00 26 1019.1
20260503181457 16 0 0.0 0.0 0.00 0.00 0.00 25 1019.0
20260503180647 17 0 0.0 0.0 0.00 0.00 0.00 25 1019.0
20260503175707 17 0 0.0 0.0 0.00 0.00 0.00 24 1019.0
20260503174747 17 0 0.0 0.0 0.00 0.00 0.00 24 1019.0
20260503173837 17 0 0.0 0.0 0.00 0.00 0.00 23 1019.0
20260503172847 18 0 0.0 0.0 0.00 0.00 0.00 23 1019.1
20260503171952 18 0 0.0 0.0 0.00 0.00 0.00 23 1019.0
20260503171057 18 0 0.0 0.0 0.00 0.00 0.00 23 1019.1
20260503170226 18 0 0.0 0.0 0.00 0.00 0.00 23 1019.1